WetterOnline ( https://www.wetteronline.de )

Wetter aktuell Perleberg

Aktuelles Wetter: Seehausen (23m)

6-stündlich | Neueste Meldungen
Ortszeit Temperatur Wetter
Sa, 20.04. 8:00 5.4° C wolkenlos
Sa, 20.04. 2:00 4.5° C wolkenlos
Fr, 19.04. 20:00 16.1° C wolkenlos
Fr, 19.04. 14:00 22.1° C wolkenlos
Fr, 19.04. 8:00 7.3° C wolkenlos
Fr, 19.04. 2:00 6.5° C wolkenlos
Do, 18.04. 20:00 16.4° C wolkenlos
Do, 18.04. 14:00 20.2° C wolkenlos
Ortszeit Temperatur Wetter
Sa, 20.04. 10:00 11.0° C fast wolkenlos
Sa, 20.04. 9:40 10.1° C leicht bewölkt
Sa, 20.04. 9:30 8.7° C wolkig
Sa, 20.04. 9:20 8.7° C wolkig
Sa, 20.04. 9:10 8.1° C leicht bewölkt
Sa, 20.04. 9:00 7.3° C fast wolkenlos
Sa, 20.04. 8:50 7.3° C fast wolkenlos
Sa, 20.04. 8:30 6.4° C fast wolkenlos
Sa, 20.04. 8:00 5.4° C wolkenlos
Sa, 20.04. 7:30 3.7° C wolkenlos
Sa, 20.04. 7:00 2.3° C wolkenlos
Ortszeit Relative Feuchte Sichtweite
Sa, 20.04. 8:00 65% 35 km
Sa, 20.04. 2:00 66% 50 km
Fr, 19.04. 20:00 42% 55 km
Fr, 19.04. 14:00 23% 35 km
Fr, 19.04. 8:00 69% 22 km
Fr, 19.04. 2:00 68% 40 km
Do, 18.04. 20:00 38% 55 km
Do, 18.04. 14:00 27% 26 km
Ortszeit Relative Feuchte Sichtweite
Sa, 20.04. 10:00 55% 35 km
Sa, 20.04. 9:40 58% -
Sa, 20.04. 9:30 60% 35 km
Sa, 20.04. 9:20 60% -
Sa, 20.04. 9:10 60% -
Sa, 20.04. 9:00 62% 27 km
Sa, 20.04. 8:50 62% -
Sa, 20.04. 8:30 65% 35 km
Sa, 20.04. 8:00 65% 35 km
Sa, 20.04. 7:30 68% 45 km
Sa, 20.04. 7:00 73% 45 km
Ortszeit Niederschlagsmenge Niederschlagsart
Sa, 20.04. 8:00 0.0 l/m2 in 12 Std. -
Sa, 20.04. 2:00 0.0 l/m2 in 6 Std. -
Fr, 19.04. 20:00 0.0 l/m2 in 12 Std. -
Fr, 19.04. 14:00 0.0 l/m2 in 6 Std. -
Fr, 19.04. 8:00 0.0 l/m2 in 12 Std. -
Fr, 19.04. 2:00 0.0 l/m2 in 6 Std. -
Do, 18.04. 20:00 0.0 l/m2 in 12 Std. -
Do, 18.04. 14:00 0.0 l/m2 in 6 Std. -
Ortszeit Niederschlagsmenge Niederschlagsart
Sa, 20.04. 10:00 0.0 l/m2 in 1 Std. -
Sa, 20.04. 9:40 keine Meldung -
Sa, 20.04. 9:30 0.0 l/m2 in 1 Std. -
Sa, 20.04. 9:20 keine Meldung -
Sa, 20.04. 9:10 keine Meldung -
Sa, 20.04. 9:00 0.0 l/m2 in 1 Std. -
Sa, 20.04. 8:50 keine Meldung -
Sa, 20.04. 8:30 0.0 l/m2 in 1 Std. -
Sa, 20.04. 8:00 0.0 l/m2 in 1 Std. -
Sa, 20.04. 7:30 0.0 l/m2 in 1 Std. -
Sa, 20.04. 7:00 0.0 l/m2 in 1 Std. -
Ortszeit Stärke Spitze Richtung
km/h Bft. km/h Grad Sektor
Sa, 20.04. 8:00 6 1 11 20° N
Sa, 20.04. 2:00 4 1 32 360° N
Fr, 19.04. 20:00 14 3 32 50° NO
Fr, 19.04. 14:00 14 3 32 110° O
Fr, 19.04. 8:00 2 1 6 130° SO
Fr, 19.04. 2:00 4 1 22 60° NO
Do, 18.04. 20:00 11 2 35 70° O
Do, 18.04. 14:00 22 4 32 90° O
Ortszeit Stärke Spitze Richtung
km/h Bft. km/h Grad Sektor
Sa, 20.04. 10:00 7 2 14 10° N
Sa, 20.04. 9:40 7 2 - 10° N
Sa, 20.04. 9:30 6 1 9 360° N
Sa, 20.04. 9:20 6 1 - 360° N
Sa, 20.04. 9:10 6 1 - 360° N
Sa, 20.04. 9:00 6 1 11 20° N
Sa, 20.04. 8:50 6 1 - 20° N
Sa, 20.04. 8:30 9 2 11 10° N
Sa, 20.04. 8:00 6 1 11 20° N
Sa, 20.04. 7:30 6 1 7 330° NW
Sa, 20.04. 7:00 6 1 6 330° NW
Ortszeit Untergrenze Bedeckung Gattung
total tief tief mittel hoch
Sa, 20.04. 8:00 - 0/8 0/8 - - -
Sa, 20.04. 2:00 - 0/8 0/8 - - -
Fr, 19.04. 20:00 - 0/8 0/8 - - -
Fr, 19.04. 14:00 - 0/8 0/8 - - -
Fr, 19.04. 8:00 - 0/8 0/8 - - -
Fr, 19.04. 2:00 - 0/8 0/8 - - -
Do, 18.04. 20:00 - 0/8 0/8 - - -
Do, 18.04. 14:00 - 0/8 0/8 - - -
Ortszeit Bedeckungsgrad in Achtel und Wolkenuntergrenze
Sa, 20.04. 10:00 2(9000m)
Sa, 20.04. 9:40 4(9000m) 4(10500m)
Sa, 20.04. 9:30 7(9000m) 8(10500m)
Sa, 20.04. 9:20 7(9000m) 8(10500m)
Sa, 20.04. 9:10 4(9000m) 6(10500m)
Sa, 20.04. 9:00 1(10500m) 4(10500m)
Sa, 20.04. 8:50 1(10500m)
Sa, 20.04. 8:30 1(10500m)
Sa, 20.04. 8:00 keine Wolken
Sa, 20.04. 7:30 keine Wolken
Sa, 20.04. 7:00 keine Wolken
Ortszeit Luftdruck NN (hPa) Tendenz (hPa in 3 Std.)
Sa, 20.04. 8:00 1033 + 0,1
Sa, 20.04. 2:00 1033 + 0,2
Fr, 19.04. 20:00 1032 - 0,2
Fr, 19.04. 14:00 1033 - 0,8
Fr, 19.04. 8:00 1033 + 0,8
Fr, 19.04. 2:00 1032 + 0,7
Do, 18.04. 20:00 1030 + 0,2
Do, 18.04. 14:00 1031 - 1,1
Ortszeit Luftdruck NN (hPa) Tendenz (hPa in 3 Std.)
Sa, 20.04. 10:00 1033 + 0,1
Sa, 20.04. 9:40 1033 keine Meldung
Sa, 20.04. 9:30 1033 + 0,2
Sa, 20.04. 9:20 1033 keine Meldung
Sa, 20.04. 9:10 1033 keine Meldung
Sa, 20.04. 9:00 1033 + 0,2
Sa, 20.04. 8:50 1033 keine Meldung
Sa, 20.04. 8:30 1033 + 0,1
Sa, 20.04. 8:00 1033 + 0,1
Sa, 20.04. 7:30 1033 + 0,1
Sa, 20.04. 7:00 1033 - 0,1
Ortszeit Schneehöhe (cm)
Sa, 20.04. 8:00 0
Sa, 20.04. 2:00 0
Fr, 19.04. 20:00 0
Fr, 19.04. 14:00 0
Fr, 19.04. 8:00 0
Fr, 19.04. 2:00 0
Do, 18.04. 20:00 0
Do, 18.04. 14:00 0
Ortszeit Schneehöhe (cm)
Sa, 20.04. 10:00 0
Sa, 20.04. 9:40 0
Sa, 20.04. 9:30 0
Sa, 20.04. 9:20 0
Sa, 20.04. 9:10 0
Sa, 20.04. 9:00 0
Sa, 20.04. 8:50 0
Sa, 20.04. 8:30 0
Sa, 20.04. 8:00 0
Sa, 20.04. 7:30 0
Sa, 20.04. 7:00 0
Link zu dieser Seite / Seite empfehlen

Das Wetter in ...